Вернуться в каталог

SDA_1671

АктивенВоенныеPO
NORAD 65981·PAYLOAD·🇺🇸 United States

Запущен Oct 15, 2025 с Vandenberg Space Force Base

Loading…

Ближайшие Пролёты (ближайшие 24 часа)

TLE

СвежийSource: Space-Track

Эпоха: Sep 13, 2026, 21:53 UTC

1 65981U 25230H   26256.91226602  .00000128  00000-0  11625-3 0  9999
2 65981  81.2997 130.3442 0002240 347.5612  12.5485 13.78087508 46035

Отслеживайте SDA_1671 в реальном времени с AllMySat

Download on the App Store